Orbital Elements at Epoch 2459000.5 (2020-May-31.0) TDB
Reference: JPL 11 (heliocentric ecliptic J2000)
Element | Value | Uncertainty (1-sigma) | Units |
e | .1679111970106321 | 1.1372e-07 | |
a | 2.606558360401026 | 2.5152e-08 | au |
q | 2.168888026028019 | 2.8311e-07 | au |
i | 3.594243997664844 | 1.0417e-05 | deg |
node | 206.2987762340826 | 0.00013512 | deg |
peri | 349.1659117591531 | 0.00013906 | deg |
M | 117.8163211852347 | 3.29e-05 | deg |
tp | 2458497.459949529497 (2019-Jan-13.95994953) | 0.00013716 | TDB |
period | 1537.091095253759 4.21 | 2.2248e-05 6.091e-08 | d yr |
n | .2342086302572505 | 3.3899e-09 | deg/d |
Q | 3.044228694774032 | 2.9375e-08 | au |
|
| | Orbit Determination Parameters
Additional Information
|